Temp
-12 -13 -13 -13 -13 -13 -13 -13 -13 -13 -13 -13 -13 -13 -13 -13 -13 -13 -13 -13 -12 -12 -12 -12 -12 -12 -11 -11 -11 -11 -11 -12 -11 -11 -11 -11 -11 -12 -12 -11 -11 -12 -11 -11 -11
-12 -12 -12 -13 -13 -13 -13 -13 -13 -13 -13 -13 -12 -13 -13 -13 -13 -13 -13 -13 -13 -13 -12 -12 -12 -12 -12 -12 -12 -12 -12 -12 -12 -12 -12 -12 -12 -12 -12 -12 -12 -12 -12 -12 -12
-12 -12 -12 -12 -13 -13 -13 -13 -13 -13 -13 -13 -13 -13 -13 -13 -13 -13 -13 -13 -13 -13 -13 -13 -12 -12 -12 -12 -12 -12 -12 -13 -13 -13 -13 -13 -12 -12 -13 -13 -13 -13 -12 -12 -12
-12 -12 -13 -12 -12 -12 -12 -13 -14 -13 -13 -13 -13 -13 -13 -14 -14 -13 -13 -13 -13 -13 -13 -13 -13 -13 -13 -13 -13 -13 -13 -13 -13 -13 -13 -13 -13 -13 -13 -13 -13 -13 -13 -13 -13
-12 -12 -12 -13 -13 -13 -13 -13 -14 -14 -13 -13 -13 -13 -14 -14 -14 -14 -14 -14 -13 -13 -13 -13 -13 -13 -13 -13 -13 -13 -13 -13 -14 -14 -14 -13 -13 -13 -14 -14 -13 -13 -13 -13 -13
-11 -12 -13 -12 -13 -13 -13 -14 -14 -14 -14 -14 -14 -14 -14 -14 -14 -14 -14 -14 -14 -14 -14 -14 -14 -14 -14 -14 -14 -14 -14 -14 -14 -14 -14 -14 -14 -13 -14 -14 -13 -13 -14 -14 -13
-11 -12 -12 -12 -13 -13 -13 -13 -14 -14 -14 -14 -15 -14 -14 -15 -15 -14 -14 -14 -14 -14 -14 -14 -14 -14 -14 -14 -14 -14 -14 -14 -14 -14 -14 -14 -14 -14 -14 -14 -14 -14 -14 -14 -14
-12 -12 -12 -13 -13 -13 -14 -14 -14 -14 -14 -15 -15 -15 -15 -15 -15 -15 -15 -15 -14 -14 -14 -14 -14 -14 -14 -14 -14 -14 -14 -14 -14 -15 -15 -15 -15 -14 -14 -14 -14 -14 -14 -15 -15
-12 -13 -13 -13 -14 -14 -14 -14 -14 -14 -15 -15 -15 -15 -16 -15 -15 -15 -15 -15 -15 -15 -15 -15 -14 -14 -14 -14 -14 -15 -15 -15 -15 -15 -15 -15 -15 -15 -14 -14 -14 -14 -15 -15 -15
-13 -13 -13 -14 -15 -15 -14 -15 -15 -15 -15 -15 -15 -16 -16 -16 -16 -16 -15 -15 -15 -15 -15 -15 -15 -15 -15 -15 -15 -15 -15 -15 -15 -15 -15 -15 -15 -15 -15 -15 -15 -15 -15 -15 -15
-13 -12 -13 -14 -15 -16 -16 -16 -16 -15 -15 -15 -15 -16 -16 -16 -16 -16 -16 -16 -15 -15 -15 -15 -15 -15 -15 -15 -15 -15 -15 -15 -15 -15 -15 -15 -15 -15 -15 -15 -15 -15 -15 -16 -16
-13 -12 -13 -14 -15 -16 -17 -17 -16 -16 -16 -16 -16 -16 -16 -16 -16 -16 -16 -16 -15 -15 -15 -15 -15 -15 -15 -15 -15 -15 -15 -15 -15 -15 -15 -15 -15 -16 -15 -15 -15 -16 -16 -16 -16
-12 -13 -14 -15 -17 -18 -18 -18 -18 -17 -16 -16 -16 -16 -16 -16 -16 -16 -16 -16 -16 -15 -15 -15 -15 -15 -15 -15 -15 -15 -15 -15 -15 -15 -15 -15 -15 -16 -16 -15 -16 -16 -16 -16 -16
-13 -14 -16 -16 -17 -18 -18 -18 -18 -19 -18 -17 -17 -16 -16 -16 -16 -16 -16 -16 -16 -16 -16 -15 -15 -15 -15 -16 -16 -16 -16 -16 -16 -16 -15 -15 -15 -16 -16 -16 -16 -16 -17 -17 -17
-14 -14 -16 -16 -17 -17 -17 -17 -18 -19 -18 -17 -17 -16 -16 -16 -16 -16 -16 -16 -16 -16 -16 -15 -16 -16 -16 -16 -16 -16 -16 -16 -16 -16 -16 -16 -15 -16 -16 -16 -17 -17 -17 -17 -17
-15 -16 -16 -16 -16 -17 -17 -18 -18 -19 -19 -18 -18 -17 -17 -16 -16 -16 -16 -16 -16 -16 -16 -16 -16 -16 -16 -16 -16 -16 -16 -16 -16 -16 -16 -16 -16 -16 -17 -17 -17 -17 -17 -17 -17
-16 -16 -16 -16 -17 -16 -17 -17 -19 -18 -19 -19 -19 -19 -18 -19 -17 -16 -16 -16 -16 -16 -16 -16 -16 -16 -16 -17 -17 -17 -17 -17 -17 -17 -17 -16 -16 -17 -17 -17 -17 -17 -17 -17 -17
-16 -17 -16 -16 -16 -16 -17 -17 -19 -19 -19 -19 -19 -19 -20 -19 -19 -17 -17 -17 -17 -17 -17 -17 -17 -17 -17 -17 -17 -17 -17 -17 -17 -17 -17 -17 -16 -17 -17 -17 -18 -17 -18 -18 -17
-16 -16 -16 -16 -16 -16 -16 -17 -19 -20 -20 -20 -20 -19 -20 -19 -19 -19 -18 -17 -17 -17 -17 -17 -17 -17 -17 -18 -18 -17 -18 -18 -18 -18 -17 -17 -16 -17 -17 -18 -18 -17 -18 -18 -18
-16 -16 -16 -16 -17 -17 -17 -18 -20 -21 -21 -21 -20 -20 -20 -20 -19 -20 -20 -18 -18 -18 -18 -18 -18 -18 -18 -18 -18 -18 -18 -18 -18 -18 -17 -16 -16 -17 -18 -18 -17 -18 -18 -18 -18
-16 -16 -16 -16 -17 -17 -17 -18 -20 -21 -21 -21 -21 -21 -20 -20 -20 -20 -20 -20 -19 -19 -19 -19 -19 -19 -19 -19 -19 -19 -19 -19 -19 -19 -19 -17 -16 -17 -18 -17 -17 -17 -17 -18 -18
-16 -17 -17 -17 -18 -18 -18 -18 -19 -21 -22 -22 -22 -21 -21 -20 -20 -21 -21 -21 -20 -20 -20 -20 -20 -20 -20 -19 -19 -19 -19 -20 -19 -20 -19 -18 -15 -17 -18 -17 -18 -17 -18 -18 -18
-17 -17 -17 -18 -18 -18 -19 -19 -19 -20 -21 -21 -22 -21 -21 -21 -20 -20 -21 -21 -22 -21 -20 -21 -20 -20 -20 -20 -20 -20 -20 -20 -20 -19 -18 -18 -16 -18 -18 -18 -18 -18 -18 -18 -18
-17 -18 -18 -19 -18 -19 -19 -19 -19 -20 -21 -21 -21 -20 -21 -21 -20 -20 -21 -22 -21 -22 -22 -21 -21 -20 -20 -21 -20 -20 -20 -20 -20 -19 -19 -18 -17 -18 -17 -17 -18 -18 -18 -18 -18
-18 -18 -19 -19 -19 -19 -19 -20 -20 -20 -21 -21 -21 -21 -21 -21 -21 -21 -22 -22 -22 -22 -22 -21 -21 -21 -21 -21 -21 -20 -20 -20 -20 -20 -19 -19 -18 -17 -17 -18 -18 -18 -18 -18 -18
-18 -18 -19 -19 -19 -19 -20 -20 -20 -21 -21 -21 -22 -22 -22 -22 -21 -22 -22 -22 -22 -22 -22 -21 -21 -21 -20 -20 -20 -19 -20 -20 -20 -20 -19 -19 -18 -17 -18 -18 -18 -18 -18 -18 -18
-19 -19 -20 -20 -20 -20 -20 -20 -21 -21 -21 -21 -21 -22 -22 -22 -22 -22 -22 -22 -21 -21 -22 -21 -21 -21 -19 -20 -20 -19 -20 -20 -20 -19 -19 -18 -18 -18 -18 -19 -18 -18 -18 -18 -19
Height
5811 5809 5809 5808 5807 5805 5803 5803 5802 5800 5799 5800 5800 5800 5800 5799 5800 5800 5799 5799 5799 5798 5798 5798 5798 5797 5797 5797 5796 5795 5795 5794 5793 5793 5793 5793 5793 5793 5793 5793 5793 5794 5793 5794 5794
5809 5807 5806 5806 5805 5804 5803 5801 5799 5799 5796 5795 5796 5796 5796 5796 5796 5797 5797 5796 5795 5795 5795 5794 5794 5794 5793 5793 5792 5791 5790 5789 5788 5788 5788 5788 5788 5788 5789 5788 5787 5786 5786 5786 5787
5807 5805 5804 5802 5800 5799 5798 5797 5797 5795 5794 5792 5791 5792 5793 5793 5794 5793 5793 5793 5792 5792 5791 5791 5790 5790 5790 5790 5789 5788 5787 5786 5786 5785 5785 5785 5785 5784 5785 5783 5783 5782 5780 5779 5780
5805 5803 5801 5799 5798 5794 5792 5791 5790 5790 5788 5789 5788 5787 5788 5789 5791 5790 5789 5789 5789 5788 5788 5788 5787 5787 5787 5787 5786 5786 5785 5784 5784 5783 5782 5782 5781 5780 5780 5780 5778 5777 5776 5774 5772
5802 5799 5797 5797 5795 5792 5791 5789 5785 5784 5784 5783 5783 5783 5783 5785 5785 5785 5785 5785 5785 5785 5785 5784 5784 5784 5784 5784 5783 5783 5782 5782 5781 5780 5778 5777 5776 5776 5775 5773 5772 5771 5770 5768 5766
5799 5796 5793 5790 5789 5788 5786 5784 5785 5782 5780 5778 5779 5779 5780 5780 5780 5781 5781 5781 5781 5781 5781 5781 5781 5781 5780 5780 5780 5779 5779 5778 5777 5776 5775 5773 5771 5771 5770 5768 5766 5766 5763 5761 5759
5793 5791 5788 5786 5784 5780 5779 5779 5778 5779 5778 5776 5773 5774 5774 5776 5775 5775 5776 5776 5777 5777 5777 5777 5778 5778 5777 5777 5776 5775 5775 5774 5774 5773 5771 5770 5765 5766 5765 5763 5761 5759 5756 5753 5751
5785 5783 5780 5778 5775 5774 5773 5771 5770 5770 5769 5770 5769 5768 5768 5768 5770 5770 5771 5771 5772 5773 5773 5773 5774 5774 5774 5773 5773 5772 5771 5770 5769 5768 5767 5766 5765 5759 5759 5757 5754 5751 5748 5745 5741
5775 5772 5770 5766 5765 5763 5763 5761 5760 5760 5760 5761 5763 5762 5763 5762 5763 5764 5765 5766 5766 5767 5768 5769 5769 5770 5770 5769 5769 5767 5766 5765 5763 5763 5762 5761 5761 5755 5752 5749 5746 5742 5739 5736 5733
5765 5761 5756 5753 5752 5751 5749 5749 5750 5750 5751 5752 5753 5756 5757 5757 5756 5758 5758 5759 5760 5761 5763 5763 5764 5764 5764 5764 5764 5763 5762 5761 5759 5759 5757 5754 5753 5749 5747 5743 5739 5735 5731 5728 5724
5752 5749 5744 5741 5738 5737 5735 5736 5739 5740 5740 5741 5744 5746 5748 5750 5750 5751 5751 5752 5754 5755 5756 5756 5758 5758 5758 5757 5757 5756 5755 5755 5753 5752 5751 5748 5747 5744 5740 5736 5732 5728 5724 5721 5716
5741 5737 5730 5726 5722 5719 5720 5721 5723 5725 5728 5730 5733 5736 5738 5742 5743 5743 5745 5746 5747 5748 5749 5750 5750 5751 5750 5750 5750 5749 5748 5747 5746 5745 5743 5742 5741 5737 5733 5729 5724 5720 5716 5712 5708
5728 5725 5720 5712 5709 5707 5706 5707 5708 5711 5714 5720 5722 5725 5729 5732 5734 5736 5737 5738 5739 5741 5742 5742 5744 5744 5743 5743 5742 5741 5741 5740 5739 5738 5737 5734 5733 5731 5726 5721 5716 5711 5707 5703 5699
5718 5712 5707 5702 5701 5698 5698 5698 5696 5700 5703 5710 5713 5715 5719 5722 5724 5728 5729 5731 5732 5733 5734 5734 5736 5736 5736 5735 5735 5734 5733 5732 5731 5729 5728 5727 5723 5724 5718 5713 5707 5703 5698 5694 5688
5707 5701 5698 5693 5691 5689 5690 5689 5689 5689 5691 5699 5704 5706 5709 5713 5716 5718 5720 5722 5723 5725 5728 5728 5728 5728 5728 5728 5727 5727 5726 5725 5724 5722 5720 5719 5716 5716 5711 5705 5699 5694 5690 5684 5678
5697 5693 5689 5687 5683 5680 5680 5678 5678 5682 5681 5686 5690 5695 5699 5703 5705 5708 5711 5713 5714 5716 5718 5719 5719 5720 5720 5720 5720 5719 5718 5717 5716 5714 5713 5711 5709 5710 5703 5695 5689 5685 5681 5674 5668
5689 5686 5681 5676 5673 5668 5669 5669 5670 5669 5674 5678 5680 5683 5687 5693 5697 5698 5701 5703 5706 5708 5709 5710 5711 5712 5712 5712 5712 5711 5711 5709 5707 5705 5704 5702 5700 5701 5694 5684 5680 5677 5672 5666 5659
5680 5676 5673 5668 5665 5663 5658 5658 5658 5661 5665 5667 5670 5674 5679 5683 5687 5690 5693 5695 5697 5699 5700 5701 5704 5704 5704 5705 5704 5704 5703 5702 5697 5697 5695 5694 5692 5693 5686 5677 5671 5668 5663 5657 5650
5671 5667 5664 5659 5654 5652 5652 5649 5650 5653 5656 5658 5660 5664 5671 5675 5679 5681 5684 5687 5689 5691 5694 5694 5695 5695 5695 5695 5696 5696 5695 5693 5690 5688 5686 5685 5684 5686 5677 5669 5664 5659 5653 5648 5640
5663 5658 5655 5651 5651 5647 5645 5642 5643 5645 5647 5649 5651 5654 5661 5666 5670 5672 5675 5678 5681 5683 5684 5685 5686 5686 5686 5687 5688 5687 5686 5685 5681 5677 5676 5676 5674 5679 5669 5662 5656 5652 5645 5639 5630
5654 5649 5644 5644 5644 5640 5638 5635 5636 5635 5638 5642 5644 5646 5650 5655 5658 5662 5665 5668 5670 5673 5675 5676 5677 5678 5678 5679 5679 5678 5676 5675 5671 5669 5667 5666 5666 5669 5659 5653 5648 5644 5636 5629 5622
5645 5641 5638 5635 5636 5632 5631 5627 5626 5626 5629 5631 5635 5637 5641 5645 5648 5651 5654 5658 5661 5663 5664 5666 5665 5668 5668 5668 5668 5666 5667 5665 5661 5661 5659 5659 5657 5657 5652 5644 5640 5636 5628 5621 5614
5638 5634 5631 5628 5627 5625 5624 5621 5618 5619 5620 5621 5625 5628 5631 5634 5637 5640 5644 5649 5651 5652 5652 5656 5654 5656 5657 5659 5657 5656 5656 5655 5652 5651 5652 5649 5651 5647 5639 5636 5632 5628 5622 5615 5608
5629 5625 5623 5620 5620 5618 5616 5616 5612 5612 5612 5613 5614 5616 5620 5623 5625 5628 5633 5638 5641 5642 5643 5644 5645 5647 5647 5645 5644 5644 5645 5644 5643 5643 5643 5639 5639 5639 5633 5629 5626 5621 5616 5609 5601
5620 5618 5615 5614 5613 5612 5609 5608 5607 5606 5606 5607 5607 5607 5609 5612 5615 5617 5622 5626 5629 5632 5633 5633 5633 5634 5634 5635 5634 5634 5633 5634 5634 5637 5631 5634 5630 5628 5625 5622 5619 5614 5608 5602 5594
5614 5611 5607 5606 5605 5604 5602 5602 5600 5599 5599 5599 5599 5600 5601 5603 5605 5607 5611 5614 5617 5621 5622 5623 5621 5623 5621 5623 5622 5620 5623 5627 5627 5629 5626 5623 5624 5621 5619 5616 5612 5607 5602 5597 5590
5602 5603 5600 5598 5596 5596 5595 5593 5592 5592 5592 5592 5593 5594 5594 5595 5597 5599 5601 5604 5606 5609 5610 5611 5611 5610 5608 5612 5611 5611 5616 5617 5621 5620 5619 5617 5614 5615 5614 5610 5605 5603 5598 5592 5586
Wind_Speed
18 18 19 18 18 18 16 17 19 17 17 20 21 20 18 17 17 16 16 15 14 12 11 10 11 12 14 16 17 18 18 18 19 20 21 21 21 20 22 23 26 25 27 28 29
20 19 20 22 23 23 22 19 18 20 19 19 19 19 18 18 18 18 17 15 13 12 11 10 11 13 15 14 13 12 12 12 12 13 14 15 16 18 19 21 22 24 26 27 29
24 23 24 23 21 22 22 24 23 19 22 22 20 21 20 19 19 19 18 16 13 12 10 10 12 12 11 9 8 6 5 6 7 8 10 10 11 12 12 15 15 18 21 24 26
29 30 27 24 25 24 24 25 25 25 21 25 24 20 21 20 20 20 19 17 15 13 11 12 11 10 9 7 6 6 7 8 9 10 12 14 15 16 16 18 19 21 22 25 27
31 30 31 34 32 29 27 24 22 23 24 20 23 21 21 21 22 21 18 17 16 14 13 12 12 11 10 9 8 8 10 11 12 13 14 16 16 16 17 19 22 23 24 26 28
40 39 37 33 34 37 32 26 26 25 24 21 21 23 23 22 22 20 19 18 17 16 14 13 12 12 10 10 11 12 13 14 15 15 15 18 20 17 18 21 26 28 30 32 34
46 48 46 45 39 36 37 35 29 28 27 25 23 24 25 23 22 21 19 19 18 16 13 12 13 12 11 12 14 15 16 17 16 16 15 14 20 18 18 22 26 30 33 36 37
47 51 52 50 45 41 39 37 35 30 30 30 28 27 27 24 22 20 17 19 20 17 15 15 15 15 15 16 16 18 19 20 19 18 16 16 14 22 22 23 27 30 33 35 38
52 54 53 51 48 45 44 41 38 35 32 32 33 32 31 26 25 23 24 25 22 21 19 18 19 19 19 19 19 20 21 22 24 20 20 21 18 25 26 28 30 33 35 36 36
53 55 58 55 50 50 50 46 43 39 38 35 33 34 33 28 26 26 26 25 25 24 23 23 23 23 23 23 23 24 24 24 26 24 22 25 24 28 28 30 32 34 36 36 36
57 57 60 56 51 48 54 51 47 45 43 40 38 34 33 32 29 29 29 29 29 29 27 28 27 26 26 26 26 28 28 28 29 28 27 27 27 29 30 32 34 37 37 35 36
56 60 60 55 50 46 49 52 50 50 48 43 42 40 38 38 35 31 31 31 30 30 31 31 30 29 28 29 29 30 30 31 32 31 31 29 28 29 32 35 36 38 37 35 37
62 66 58 49 45 43 45 48 52 49 50 46 45 44 43 42 40 36 34 31 29 29 28 29 29 31 32 32 32 32 33 33 34 34 33 34 31 26 32 36 37 39 39 36 38
60 57 46 41 37 37 38 42 49 45 46 46 44 44 45 44 43 38 37 35 34 32 32 33 32 33 33 33 33 33 34 35 37 37 36 34 36 30 33 35 38 39 39 38 39
57 53 44 38 31 29 32 37 39 46 46 44 46 49 41 44 44 41 38 36 36 35 34 34 33 33 32 33 34 34 36 37 37 37 35 33 36 31 33 35 37 40 38 38 41
51 44 42 39 36 35 38 40 42 35 43 43 43 44 47 41 41 40 41 38 36 36 35 34 33 32 33 35 35 36 37 37 37 36 35 33 34 31 30 37 40 39 37 40 43
46 41 39 37 36 38 44 45 41 40 34 42 41 42 43 34 31 31 32 34 34 34 34 34 34 34 35 36 36 35 35 38 40 37 36 36 36 32 30 40 40 39 38 42 46
42 39 39 37 41 42 42 42 39 35 36 37 42 43 27 31 33 31 29 30 31 33 35 35 35 36 37 36 36 36 37 37 42 43 42 36 36 31 31 36 40 40 41 43 46
42 38 39 40 40 42 42 39 35 35 34 36 36 35 27 28 29 29 29 32 33 35 35 36 37 37 37 38 37 38 39 41 45 44 42 36 35 29 29 39 41 40 41 44 46
37 39 40 43 43 39 40 37 36 37 37 34 35 34 35 32 31 34 33 35 36 35 35 37 39 39 40 39 38 39 43 46 43 43 42 36 33 28 33 33 39 39 40 42 47
37 39 39 42 40 34 37 35 32 34 34 31 32 36 37 44 43 39 40 39 38 36 36 37 39 41 40 39 41 44 44 42 40 39 37 37 31 27 30 37 37 37 40 42 46
38 40 38 39 36 33 33 34 31 31 36 35 32 36 39 40 42 38 37 41 42 42 41 40 45 42 44 43 44 46 42 39 39 36 37 33 27 24 32 37 36 38 39 42 44
37 38 38 37 34 33 32 32 30 28 28 33 35 38 45 45 42 41 41 40 40 42 42 42 46 43 44 45 47 46 40 38 38 36 33 33 25 30 34 37 37 36 38 40 42
35 35 35 34 33 32 31 30 26 29 29 29 33 38 41 45 44 42 37 39 41 41 39 41 44 45 46 45 44 43 43 40 36 34 28 30 27 27 35 37 32 34 36 39 42
35 33 33 33 31 31 31 27 26 25 28 28 31 33 34 41 44 40 38 41 44 43 44 47 47 41 42 43 44 45 41 37 31 24 30 27 31 33 36 34 32 35 37 39 42
35 34 32 34 32 30 29 29 26 26 26 27 33 35 34 34 39 41 43 47 48 44 47 47 45 43 42 41 40 37 30 27 27 19 27 29 30 33 31 32 33 34 37 37 40
35 35 34 32 31 30 29 30 29 28 28 25 25 29 32 36 39 40 42 43 44 44 44 43 42 42 40 35 34 28 18 24 17 23 24 26 30 30 31 31 31 33 34 36 39
Wind_Direction
324 312 305 306 305 302 296 300 298 293 288 291 285 275 274 272 268 266 270 275 277 278 274 272 284 293 294 294 291 288 286 284 282 280 281 282 283 283 281 278 277 279 273 268 267
317 317 308 299 298 298 298 295 292 293 284 288 288 279 273 268 266 269 272 275 274 274 276 286 297 302 301 297 293 290 287 287 289 292 291 293 292 290 289 287 286 283 281 279 272
315 311 310 299 294 290 289 285 286 287 284 279 275 280 270 265 269 273 274 275 274 273 278 288 301 299 293 294 299 307 319 327 327 326 322 318 311 309 319 313 306 304 298 289 286
316 312 305 301 296 293 292 281 277 277 277 280 271 265 262 267 270 272 272 273 271 268 271 287 284 279 282 285 295 310 321 321 323 319 313 309 307 309 312 308 307 304 302 299 294
324 317 312 307 300 297 298 290 274 269 270 266 267 258 257 259 267 273 269 268 263 258 266 271 270 272 277 283 294 307 314 317 314 312 310 307 307 315 319 318 314 314 310 305 301
319 316 315 309 305 299 292 286 282 272 266 257 254 257 257 257 263 265 267 266 254 256 261 261 263 266 270 280 292 302 309 311 309 309 313 315 309 314 317 315 310 310 306 302 298
317 316 311 310 301 294 289 285 280 274 269 258 246 253 258 261 260 261 265 252 246 251 255 255 258 261 272 284 294 299 301 300 297 299 306 309 308 312 312 311 310 308 304 301 297
311 312 308 304 297 288 282 277 274 270 263 260 253 249 251 254 258 254 263 247 243 247 254 255 259 267 274 281 287 292 297 299 298 301 301 302 310 308 312 312 315 315 312 308 304
310 308 304 297 289 281 273 269 264 261 256 259 257 253 252 247 249 254 263 254 247 249 254 259 264 270 277 281 284 288 294 296 298 300 296 298 308 303 308 314 317 318 317 314 309
309 308 306 299 288 278 268 262 257 254 253 253 254 253 253 246 246 253 256 249 247 250 254 259 266 272 278 281 283 286 289 294 297 293 296 300 307 305 308 311 317 318 317 314 309
310 312 308 305 296 276 269 261 255 251 249 248 249 249 249 247 250 255 255 253 251 253 258 257 265 271 276 280 283 287 291 294 297 293 294 300 304 306 309 311 315 317 316 313 307
314 313 308 309 300 283 271 265 255 250 246 244 246 246 247 253 254 253 253 255 256 257 260 259 263 268 276 281 283 285 289 293 295 297 294 299 303 309 310 309 313 313 313 310 308
306 312 312 310 297 286 275 271 257 254 250 244 244 246 249 250 255 254 254 255 256 257 258 259 263 269 276 280 281 283 289 293 295 297 298 299 300 310 309 309 310 310 311 306 305
307 312 316 313 307 292 288 283 279 252 256 254 247 248 251 251 253 255 255 256 257 257 258 261 266 270 274 277 280 285 290 293 296 298 299 300 301 317 312 310 307 308 308 304 304
310 314 317 313 306 299 289 291 292 264 259 250 247 248 251 253 254 253 256 257 257 256 259 261 264 267 269 273 278 285 290 293 296 297 297 297 299 313 311 309 304 305 308 306 306
314 314 311 306 305 303 294 293 294 270 250 250 253 251 250 255 253 254 255 256 254 255 255 257 259 261 266 272 279 285 290 294 297 296 296 296 300 313 315 306 301 305 311 307 309
313 310 306 305 299 299 296 291 280 269 260 252 252 253 249 249 254 252 252 250 250 251 251 250 253 260 266 273 278 283 290 295 296 297 296 296 299 316 313 301 300 307 310 309 311
310 305 303 302 306 303 299 295 282 269 258 261 254 255 244 248 242 249 250 247 243 244 244 249 255 261 268 272 277 282 288 294 295 293 290 292 297 313 307 299 304 309 309 310 315
309 309 306 304 300 299 298 292 280 267 263 258 262 249 228 233 233 238 242 242 241 242 249 255 260 264 268 271 274 279 287 292 294 291 289 291 293 314 303 305 303 307 310 312 320
306 308 314 311 303 299 298 293 275 268 266 258 257 249 224 225 228 235 231 239 246 251 255 260 264 265 268 271 277 284 289 295 292 288 290 289 290 309 305 303 305 308 309 315 323
301 308 310 312 304 299 297 294 279 268 259 256 256 247 242 234 229 230 234 239 243 250 256 260 262 266 269 274 280 285 289 293 286 284 289 289 290 314 305 301 307 312 314 321 327
297 306 310 311 308 300 293 292 285 265 253 251 251 249 248 252 245 238 239 242 245 248 253 257 260 264 271 275 279 284 290 291 281 280 283 289 290 306 303 300 309 317 317 323 326
298 302 306 308 306 302 294 290 283 270 258 255 254 244 241 254 256 244 234 244 253 261 256 258 265 268 270 274 277 283 286 284 282 280 281 282 297 304 301 306 309 315 317 323 325
296 302 302 301 300 298 293 288 284 277 264 258 256 250 247 252 255 248 242 243 248 256 261 264 268 271 275 280 284 285 284 280 285 279 278 284 294 303 298 305 312 316 318 324 327
296 299 298 298 296 291 289 287 285 277 269 264 257 253 249 247 248 243 243 244 248 254 259 265 272 270 273 278 281 282 279 272 275 273 278 292 292 298 300 307 315 318 320 329 328
295 296 297 296 293 287 286 284 283 281 276 269 261 254 248 248 242 240 242 245 251 256 261 264 269 273 274 278 280 277 276 268 262 270 277 285 294 296 302 309 316 316 320 329 328
291 293 295 292 289 285 284 282 280 278 276 274 267 257 251 249 250 252 256 258 260 259 262 266 270 274 272 275 276 278 276 267 264 269 278 284 293 298 300 307 314 314 319 329 328